Theta_e
350 349 348 347 348 348 347 346 346 345 344 344 342 341 341 342 342 343 343 343 342 343 343 342 341 341 340 340 340 340 340 340 341 340 340 340 340 338 338 337 338 337 336 335 334 334 334 333 334 333 332 332 332 332 332 331 330 331 330 329 331 330 329 331 329 326 325 323 322 320 318 317 315 314 312 311 310 309 309 308 308 308 308 308 308
349 349 350 349 349 348 347 346 346 346 345 343 342 341 342 342 343 343 343 342 342 342 342 341 341 341 340 340 340 339 339 340 340 340 340 340 340 338 337 337 337 336 335 334 333 334 333 333 333 331 331 330 330 330 330 329 329 330 330 327 330 331 329 330 329 327 326 324 323 322 319 317 315 313 311 310 309 309 309 308 308 307 307 307 308
350 349 350 350 350 349 347 347 346 346 345 344 342 342 343 342 342 343 342 342 342 341 341 341 341 340 340 339 339 338 338 339 339 339 338 338 338 337 336 336 335 334 333 333 333 333 332 332 330 329 329 329 329 330 329 329 328 329 329 327 327 328 329 330 329 329 328 325 325 325 322 320 317 313 310 309 308 308 308 309 309 308 307 306 307
351 349 350 350 350 349 347 347 347 346 345 344 343 343 343 343 343 343 342 342 342 341 340 340 340 339 339 338 337 337 338 338 338 337 337 337 336 336 335 334 333 332 332 332 331 331 330 330 329 329 328 327 328 329 328 328 328 328 329 327 325 324 326 327 328 330 330 328 327 328 326 325 322 316 310 308 307 307 307 307 308 308 308 307 306
351 349 349 349 348 348 347 347 346 346 345 345 344 344 344 343 343 343 343 342 341 340 339 339 339 339 338 338 337 337 338 337 336 336 335 335 334 334 333 333 332 331 331 331 330 329 329 328 328 328 326 325 326 327 327 327 327 327 328 328 326 324 323 322 322 325 328 326 325 327 329 330 326 315 312 312 309 307 307 305 306 308 308 307 305
349 349 348 348 348 347 347 346 346 345 345 345 344 344 344 343 343 343 343 342 341 339 338 338 338 338 338 338 337 338 337 337 336 335 334 334 333 332 332 331 330 330 330 330 329 328 327 326 326 326 325 325 326 326 326 326 326 325 325 325 323 321 320 317 316 319 322 321 319 320 323 327 323 316 316 316 311 308 308 307 306 306 307 307 306
348 348 347 347 347 347 346 346 345 345 345 345 344 344 344 343 343 343 342 341 340 339 339 338 338 339 339 338 338 338 337 337 336 335 334 333 332 331 331 330 329 329 329 329 328 326 325 325 324 324 323 323 324 325 325 324 323 323 322 322 321 320 318 315 312 312 315 315 314 314 315 318 320 319 319 317 313 311 309 307 305 304 305 307 307
349 349 346 346 347 347 346 345 345 344 344 344 344 344 343 343 343 343 342 341 340 339 338 339 339 339 339 338 338 337 336 336 336 334 333 332 331 330 329 329 329 329 328 328 326 325 325 324 323 322 321 321 322 322 322 321 320 320 320 321 322 321 318 314 311 311 312 312 312 312 311 313 315 316 316 315 317 316 312 309 307 305 305 304 304
348 349 347 345 347 347 345 345 344 344 344 343 343 342 343 343 343 342 341 340 339 338 338 339 340 340 339 338 338 337 336 336 336 334 332 332 331 329 328 328 329 328 327 326 325 324 324 322 321 320 319 319 320 320 319 318 317 317 317 319 319 319 317 315 314 314 314 314 313 313 311 311 311 311 312 312 315 317 315 312 310 308 308 305 304
346 346 346 345 346 346 345 345 344 344 343 342 343 341 341 343 343 342 341 341 340 338 339 340 340 340 339 338 338 337 336 336 334 332 331 331 330 329 329 329 328 327 325 325 324 323 322 321 320 318 317 317 317 316 316 315 314 314 314 315 316 316 315 315 315 314 314 314 314 314 313 312 313 312 312 311 313 315 315 313 311 311 311 309 306
346 344 344 345 346 345 345 345 344 345 344 342 343 341 340 342 343 342 341 341 341 339 339 340 340 339 338 338 338 337 336 335 333 331 330 330 329 329 329 328 327 326 325 324 323 323 321 319 318 317 316 315 314 313 312 312 311 311 312 312 313 313 313 313 313 312 312 312 312 312 312 312 312 313 312 311 312 313 315 315 311 310 312 310 307
347 346 344 344 345 345 345 345 344 345 344 343 344 341 339 341 343 342 341 342 341 340 340 340 340 339 338 338 337 336 335 333 332 331 330 330 329 328 328 328 326 325 324 323 323 322 321 318 317 317 316 314 313 311 311 310 310 311 311 312 313 313 313 312 311 311 310 310 310 310 310 310 310 310 310 310 311 310 312 314 310 308 311 311 308
345 346 345 345 345 344 345 345 344 345 344 344 343 341 338 340 343 342 341 341 341 341 340 340 339 339 339 339 338 336 334 333 332 331 330 330 329 328 328 327 326 325 324 323 322 322 320 318 317 317 315 313 312 311 310 310 310 310 311 311 312 313 312 311 311 310 310 309 309 309 309 309 308 309 308 309 309 308 309 310 310 309 310 310 308
345 345 345 344 344 344 345 344 344 344 344 344 343 341 339 340 342 342 341 341 341 341 340 339 339 339 339 338 337 336 334 333 332 331 331 330 329 328 327 327 326 324 324 322 321 321 319 318 317 315 314 312 310 310 310 309 309 309 309 309 310 311 310 310 310 310 309 309 309 308 308 308 308 307 307 307 307 307 307 308 308 309 310 308 306
342 344 344 344 344 345 344 344 344 344 344 344 343 341 338 339 342 342 341 341 341 341 340 339 339 339 339 338 336 335 334 333 332 331 330 329 329 328 327 326 326 324 323 322 321 320 319 317 316 314 312 311 309 309 309 309 309 309 308 308 308 309 308 308 309 309 308 308 308 308 307 307 307 307 306 307 306 306 306 306 306 308 311 311 307
341 342 343 344 344 344 344 344 344 344 343 343 343 341 339 339 340 341 341 341 341 341 340 339 339 339 338 338 336 335 334 333 332 331 330 329 329 328 327 326 325 324 323 322 320 319 318 316 314 313 311 310 309 309 309 309 308 307 306 306 307 307 307 307 308 308 307 307 307 307 306 306 306 306 306 306 306 305 305 305 305 306 309 311 310
342 342 343 343 344 344 343 343 344 343 343 342 342 342 341 340 340 341 341 341 341 341 340 339 339 339 338 337 336 335 334 333 332 331 329 329 328 327 327 326 324 323 322 321 319 318 317 315 313 312 310 309 309 309 309 308 307 306 306 307 307 308 308 308 307 307 307 307 306 306 306 306 305 305 305 305 305 305 305 305 305 304 306 308 310
341 342 344 343 343 343 342 343 344 343 342 342 341 342 342 341 341 341 341 341 341 341 340 339 339 339 338 337 336 334 334 333 331 330 329 329 328 327 327 325 324 323 321 320 318 317 316 314 313 311 310 309 309 308 309 308 307 307 307 307 307 307 307 307 307 307 307 306 306 306 305 305 305 305 304 304 304 305 305 304 305 304 304 305 307
341 345 345 343 343 343 342 343 344 343 342 342 342 342 342 342 341 341 341 341 341 340 340 339 339 339 338 337 335 334 334 333 331 330 329 328 328 327 326 324 323 323 321 319 318 317 315 314 312 311 310 309 308 308 308 308 307 307 307 307 307 307 307 307 306 306 306 306 306 306 305 305 305 305 304 305 304 304 305 304 304 304 304 304 304
343 346 346 344 343 342 342 342 344 343 342 342 342 342 342 342 341 341 341 341 341 340 339 340 339 339 338 336 335 334 333 332 331 330 329 328 328 326 325 323 323 323 321 318 317 316 315 314 312 311 310 309 308 308 308 308 307 307 307 307 307 307 306 306 306 306 306 306 306 306 306 306 305 305 304 304 304 304 304 304 304 304 304 304 303
343 347 347 345 343 343 342 341 342 343 343 342 342 342 342 342 341 341 341 341 340 340 339 339 339 339 338 336 335 334 333 332 331 330 328 328 327 325 323 323 322 321 319 317 317 316 315 313 312 311 310 309 308 308 308 308 308 307 307 307 307 306 306 306 306 306 305 305 305 305 305 305 305 305 304 304 304 305 305 304 304 304 304 303 303
342 346 347 345 344 343 342 342 341 342 343 342 342 342 342 342 341 340 341 341 340 340 339 339 339 338 337 336 334 333 332 331 331 329 328 327 325 323 322 321 321 320 319 317 316 315 314 313 312 311 310 309 309 308 308 308 308 307 307 307 307 306 306 305 305 305 305 305 304 304 305 305 305 305 304 304 304 305 305 304 303 303 303 303 303
341 345 347 345 344 344 342 342 342 342 343 343 342 342 342 342 341 340 340 340 340 340 339 339 338 337 336 335 333 332 331 330 330 328 327 325 323 322 321 320 320 319 318 317 316 315 313 312 311 311 309 309 309 308 308 308 308 307 306 307 307 306 306 305 305 305 305 305 305 305 305 305 305 305 305 304 303 304 305 305 304 303 303 303 303
340 344 347 346 344 344 343 342 342 342 342 343 342 342 341 341 341 340 340 340 340 340 339 338 337 337 336 334 333 332 331 329 328 326 325 323 322 322 321 319 318 318 317 316 315 314 313 312 311 310 309 309 308 308 308 308 307 307 307 307 306 306 306 305 304 304 304 305 305 305 305 305 306 305 304 303 303 303 304 304 304 303 302 302 301
342 344 346 345 344 343 343 343 343 342 342 342 342 342 342 341 341 341 340 340 340 339 339 337 337 336 335 333 332 331 330 328 326 325 323 323 322 321 320 318 317 316 316 316 315 314 312 311 310 310 309 309 309 308 308 308 307 307 307 307 306 306 306 305 304 304 305 305 305 305 305 305 306 305 304 303 302 302 303 303 303 302 301 300 300
346 347 347 346 344 343 343 343 342 342 342 342 342 342 341 340 340 340 340 340 340 339 337 337 336 335 334 332 330 329 328 326 324 324 323 322 322 320 319 318 316 315 316 315 314 313 312 311 310 309 309 309 308 308 308 307 307 307 307 306 306 306 306 305 305 304 305 305 305 305 305 305 305 304 303 301 300 301 302 302 301 300 299 299 299
343 345 346 346 346 344 342 342 342 342 342 342 341 341 340 340 340 340 340 340 339 338 337 336 335 334 333 331 329 328 326 325 323 323 322 321 321 320 318 317 315 315 315 314 313 313 312 311 310 309 309 309 308 307 307 307 307 307 306 306 306 306 306 305 304 305 305 304 305 305 304 303 303 303 302 300 298 298 300 300 299 298 298 298 298
339 341 343 345 345 345 343 342 342 342 342 342 341 340 340 340 339 339 340 339 338 338 336 335 334 332 331 330 328 327 325 324 323 322 321 321 320 319 318 316 315 315 315 314 313 312 311 311 310 309 309 308 307 307 306 306 307 307 306 307 306 306 305 305 305 305 305 304 305 304 303 302 301 301 300 297 294 294 296 297 296 295 295 296 297
339 341 343 343 344 345 344 342 341 342 342 341 341 340 340 340 339 339 339 338 338 337 335 334 333 332 330 328 326 325 324 323 322 321 321 321 319 319 317 315 315 315 314 313 312 312 311 310 309 309 309 308 307 306 305 306 306 306 306 307 306 306 305 305 305 305 304 305 305 304 302 300 297 295 295 294 294 295 295 295 295 295 296 297 297
338 342 344 344 344 344 343 342 342 342 342 341 340 340 339 339 339 339 339 338 337 336 335 333 332 331 330 327 325 323 323 322 321 321 321 320 319 318 316 315 314 314 313 312 312 311 310 310 309 309 308 308 307 306 306 306 306 306 306 306 306 306 306 306 305 305 305 305 305 304 301 298 294 293 294 297 299 299 298 298 298 299 299 299 298
335 340 343 344 345 344 343 342 342 342 341 340 340 339 339 339 339 338 338 337 336 336 335 333 331 330 329 326 324 323 322 321 321 321 320 320 319 317 315 314 314 313 312 312 311 310 310 309 309 308 308 307 306 306 306 305 305 306 306 306 306 306 306 306 306 305 305 305 305 304 302 300 299 296 295 299 301 300 299 299 299 300 300 300 299
334 338 341 343 343 344 343 342 342 342 341 340 339 339 338 338 338 337 337 337 336 336 334 332 330 329 327 325 324 322 321 321 321 321 320 319 319 317 314 313 313 312 311 311 310 309 309 310 309 308 307 307 306 306 306 305 306 306 306 307 307 306 306 306 306 306 305 305 305 305 304 303 302 298 297 300 301 300 300 300 299 301 302 301 301
334 336 341 343 342 342 342 342 342 341 340 339 339 338 338 337 337 337 336 335 335 334 332 330 329 328 326 325 323 322 321 321 320 320 319 319 319 316 314 313 312 311 310 310 309 309 309 309 307 307 307 307 306 306 306 305 306 306 307 307 307 306 306 307 306 306 306 306 305 305 304 303 303 301 300 301 300 298 298 299 300 302 303 303 303
335 336 341 342 340 341 342 342 341 340 340 339 338 338 337 337 336 335 335 334 333 332 331 329 328 327 325 324 323 322 321 320 320 320 319 319 317 315 313 312 311 310 309 309 309 308 308 308 307 307 308 308 307 307 306 305 305 306 306 307 307 307 306 307 307 306 307 307 306 305 304 303 303 303 303 302 299 295 295 298 301 303 304 303 303
335 337 339 339 339 342 342 341 340 339 339 338 338 337 336 335 335 335 334 333 332 330 329 328 326 326 325 324 323 322 320 319 319 319 319 318 316 314 313 312 310 309 309 308 308 307 307 306 307 309 308 308 308 308 307 306 305 305 306 306 307 307 306 306 307 306 306 306 305 305 305 304 303 303 303 303 299 294 294 299 303 303 303 302 303
336 339 341 340 340 342 342 341 340 339 338 338 337 336 335 334 334 334 333 333 331 330 329 327 326 324 324 323 322 321 319 319 318 318 318 317 315 313 312 311 310 309 309 308 307 306 306 306 308 308 307 308 309 308 307 306 305 304 305 305 306 306 305 306 307 306 305 305 305 305 304 303 303 303 303 303 299 293 294 300 302 302 302 302 303
337 340 340 340 341 342 341 340 339 338 338 337 336 334 334 333 333 333 333 332 332 331 329 327 326 325 324 323 322 320 319 318 318 317 317 315 314 313 311 310 310 309 308 308 307 307 307 307 307 307 307 308 309 308 307 306 304 303 304 305 305 306 306 306 306 305 304 305 305 304 303 302 303 303 303 303 299 294 294 299 301 301 301 302 302
337 337 338 340 341 341 340 339 338 338 337 336 334 333 332 332 332 332 332 332 332 331 330 327 327 326 325 324 323 321 321 320 318 317 316 315 314 312 311 309 308 307 306 306 305 305 306 305 305 306 308 308 308 308 308 305 301 300 303 304 303 305 306 305 304 304 304 304 305 304 302 302 303 303 303 302 298 294 294 297 298 299 301 302 301
337 336 338 342 341 340 339 338 338 338 336 334 333 332 331 331 331 331 331 331 331 331 330 328 327 326 325 325 323 322 321 320 318 316 315 314 313 311 310 308 307 305 304 303 303 303 303 303 305 306 308 309 308 308 307 304 299 298 301 303 303 303 304 303 303 304 304 304 305 304 302 302 303 303 303 301 296 294 294 295 295 297 300 301 300
338 337 340 342 340 339 338 338 337 337 336 334 333 332 331 331 331 331 331 331 331 330 329 328 327 325 324 324 322 319 319 318 316 315 314 313 312 310 309 307 306 305 303 302 302 302 303 304 306 307 308 308 308 307 305 302 299 297 299 302 302 302 302 302 303 304 304 304 304 304 302 300 300 301 301 298 295 294 295 295 295 295 298 298 297
337 339 340 340 339 339 338 337 336 336 335 334 333 332 331 331 331 331 331 331 331 330 329 327 326 324 323 322 319 317 317 316 315 315 314 312 311 309 308 307 305 304 303 303 303 304 305 306 306 307 308 307 307 306 304 301 299 297 297 300 302 302 302 303 304 304 304 304 304 303 301 298 296 296 296 295 294 295 295 295 295 295 295 295 296
337 338 339 339 338 338 338 337 335 335 334 333 333 332 331 331 331 330 331 331 331 330 328 326 325 323 321 319 317 316 316 316 315 314 313 311 310 309 308 307 306 304 304 304 305 306 306 306 306 306 307 306 306 305 303 300 298 297 296 298 300 301 302 303 304 304 304 303 303 303 302 299 297 297 296 295 294 295 295 295 295 294 295 295 296
337 338 338 338 337 337 337 336 335 334 334 333 332 332 331 331 331 331 330 330 329 327 326 324 323 321 319 317 316 316 316 315 314 313 312 310 309 308 308 307 306 305 305 305 305 305 305 304 305 306 306 306 305 304 302 299 298 297 297 297 297 299 301 302 302 304 304 303 302 302 302 301 300 300 299 297 295 295 295 295 296 296 296 297 297
336 337 338 337 336 336 336 335 334 334 334 334 333 332 332 331 332 332 331 330 327 325 324 322 320 318 317 317 316 315 314 314 313 312 311 310 309 308 307 306 306 305 305 304 303 303 303 303 305 306 306 305 304 302 300 299 298 298 299 296 295 297 300 301 301 302 302 302 303 303 302 302 301 301 300 297 295 294 295 295 297 298 298 298 298
336 336 337 336 336 335 335 335 334 333 333 333 333 333 332 331 332 331 331 329 327 325 323 320 318 317 316 315 314 314 313 313 312 311 310 309 308 307 306 306 305 304 303 303 302 301 302 304 305 306 305 304 303 302 300 299 299 299 299 296 293 295 298 300 301 301 301 301 302 302 302 301 301 300 299 296 295 294 295 296 298 299 299 299 299
336 336 337 336 336 335 335 335 334 333 333 333 333 333 332 331 331 329 329 327 326 323 322 320 318 316 314 313 312 311 311 311 311 310 310 309 308 307 306 305 305 304 302 301 300 300 302 305 305 304 304 304 303 301 300 299 299 299 298 295 292 292 296 300 300 300 301 301 300 300 301 300 300 300 298 296 295 295 296 298 299 300 300 300 299
336 336 335 336 335 335 335 334 334 333 333 333 332 332 332 331 330 329 328 327 325 323 322 320 319 317 314 312 311 310 310 310 310 309 309 308 307 307 306 305 305 304 303 302 301 302 303 304 304 303 303 303 302 300 299 298 297 297 296 294 291 290 294 298 300 300 300 300 300 299 300 300 300 299 297 295 295 296 298 299 300 300 300 301 301
336 335 335 336 336 335 335 334 333 333 333 332 332 331 331 330 329 328 328 326 324 322 320 319 317 315 313 311 310 310 309 309 309 308 308 308 307 306 306 305 305 304 304 303 303 303 302 302 303 302 302 302 301 300 299 297 295 294 292 291 290 290 291 296 299 300 299 300 299 299 299 298 297 296 295 295 296 297 299 301 301 301 301 302 302
336 335 334 335 335 335 335 334 333 333 332 332 331 330 330 330 328 328 328 325 322 321 319 317 315 314 312 311 310 309 308 308 308 308 308 308 307 306 305 305 305 305 305 303 302 302 301 301 302 301 301 301 300 299 299 298 295 292 291 291 291 290 290 293 298 299 299 298 298 298 298 298 297 297 297 298 298 300 301 302 303 302 302 302 301
335 335 332 332 333 334 334 333 332 332 331 331 330 329 330 329 328 328 327 324 321 320 319 317 315 313 311 310 309 308 308 308 308 308 308 308 308 307 306 305 305 305 305 303 301 300 300 300 300 300 300 300 299 299 299 299 297 293 291 291 292 291 291 293 296 297 297 298 298 298 299 299 300 300 300 300 301 302 302 303 302 302 302 301 301
335 334 332 331 333 333 333 332 332 331 330 330 330 330 329 328 327 328 326 322 320 320 319 318 316 313 311 310 309 308 308 308 308 309 309 308 308 307 307 306 306 305 304 302 300 300 299 299 299 299 299 299 299 300 299 300 299 295 292 293 294 293 293 294 295 295 295 296 298 299 299 300 300 300 300 300 301 301 302 302 302 301 301 301 301
Wind_Speed
12 18 23 23 23 24 24 22 24 25 23 24 27 26 25 26 25 24 25 25 24 22 20 19 17 16 15 14 13 12 10 10 9 8 9 9 7 6 8 12 12 10 10 9 9 9 6 4 2 1 2 4 4 5 4 2 3 2 1 1 3 4 6 8 11 13 13 12 10 8 8 8 7 7 6 6 5 4 4 4 5 5 4 4 5
12 15 19 22 22 24 25 23 24 26 23 25 28 27 25 26 25 25 26 25 24 24 24 21 19 18 17 15 13 12 11 10 10 9 10 10 8 6 9 12 12 10 10 10 9 9 8 7 4 4 4 4 4 4 3 2 3 3 3 2 3 5 5 9 11 9 9 11 9 7 7 6 5 5 5 5 4 4 4 4 5 5 4 4 4
15 15 17 20 22 24 24 23 25 26 25 26 29 27 25 26 26 25 26 25 24 24 24 22 20 18 17 15 13 13 12 10 11 12 11 11 11 9 9 10 10 9 8 9 8 6 6 5 4 5 5 4 5 5 4 4 4 3 5 4 5 5 5 8 9 5 6 12 11 6 4 4 3 3 4 4 4 4 4 4 4 4 4 3 3
17 16 16 18 22 24 24 24 25 26 26 28 28 28 27 27 26 26 27 26 23 23 22 21 20 18 16 15 13 13 13 12 12 12 11 11 11 11 11 11 9 8 7 6 5 4 3 3 3 4 4 4 4 3 4 3 2 3 4 4 4 5 5 5 4 3 4 9 5 1 4 4 1 4 6 4 3 4 3 4 5 4 3 2 2
18 18 17 17 20 22 23 25 26 25 26 29 29 28 27 27 26 26 28 26 24 24 22 20 20 18 16 15 14 14 14 13 12 11 11 10 9 10 11 11 8 7 6 4 3 2 1 2 3 3 3 4 2 2 4 4 3 3 3 3 2 3 7 4 2 3 4 5 2 2 2 1 1 7 8 4 4 4 4 3 4 4 1 2 2
20 20 19 18 21 24 24 25 27 26 26 30 30 27 25 26 27 27 27 25 25 25 23 21 21 19 18 18 17 18 16 14 14 13 12 12 11 10 9 9 8 7 6 3 2 2 1 2 4 3 3 5 4 4 5 5 5 4 4 3 3 6 7 5 4 4 3 2 2 3 1 2 2 8 7 2 4 4 3 3 3 3 2 1 1
18 19 20 19 21 24 23 26 29 27 28 31 29 27 26 27 28 26 26 26 25 26 24 23 23 21 20 19 18 18 16 15 15 14 14 13 13 12 11 10 8 7 5 3 2 2 1 3 5 4 4 5 5 6 6 5 5 5 6 6 6 7 6 6 7 7 5 4 3 3 3 2 3 5 4 2 4 4 4 5 3 3 3 2 2
17 18 20 20 21 24 26 27 28 28 32 33 29 29 28 27 28 27 26 26 26 27 26 24 24 23 22 20 18 17 16 15 15 16 16 16 15 13 12 10 8 5 4 3 3 4 3 3 5 5 5 5 6 7 6 6 6 6 7 8 8 7 7 8 8 7 7 6 5 5 4 3 3 4 3 1 2 3 4 5 5 3 2 2 4
20 19 20 21 23 28 30 29 28 29 34 36 32 32 29 24 26 27 25 25 26 27 27 25 25 24 23 22 19 18 17 17 17 18 17 17 15 13 11 10 8 6 5 5 4 5 5 4 5 6 5 5 7 7 7 8 7 7 8 8 8 9 10 11 10 9 8 7 5 4 4 5 5 5 6 5 2 2 3 5 6 6 5 5 5
20 20 20 20 25 30 31 30 30 30 34 36 32 33 33 25 25 27 25 25 26 27 28 26 25 24 23 22 20 19 19 19 19 18 17 17 16 13 12 10 8 6 6 6 5 6 7 5 5 6 6 7 7 7 7 8 9 9 10 9 9 10 10 11 11 10 10 9 9 8 8 8 7 7 10 11 6 2 2 3 11 11 8 9 9
18 19 19 20 25 30 30 29 31 30 31 33 30 32 33 27 25 28 26 25 27 28 29 27 25 25 24 22 21 21 22 21 20 19 18 18 16 14 13 11 9 8 7 6 4 6 8 6 6 6 7 7 8 8 8 9 10 11 11 11 11 10 11 11 11 11 10 10 11 12 13 12 10 10 11 13 10 7 6 1 6 7 7 12 14
17 16 16 19 21 25 27 27 30 30 29 32 29 28 31 28 27 29 27 26 27 28 29 27 26 25 23 22 23 24 24 22 21 20 19 19 17 16 14 12 10 9 8 6 4 5 6 6 6 7 8 8 9 9 10 10 11 11 12 13 13 12 12 12 13 12 11 12 12 12 12 12 12 12 11 11 11 10 9 7 6 5 2 10 15
16 14 15 17 16 18 23 26 28 29 29 31 28 27 30 29 28 29 28 27 27 28 29 28 27 25 24 24 25 25 24 22 22 21 20 19 17 17 15 13 12 10 9 8 7 6 6 6 6 7 9 9 10 10 10 11 11 12 12 12 13 13 12 13 14 14 12 12 11 11 11 11 12 11 10 11 10 12 12 9 10 9 6 3 10
16 14 14 16 15 16 22 26 28 28 29 29 28 29 30 29 29 30 28 27 27 28 29 29 27 25 26 26 26 26 23 22 22 21 21 19 18 17 15 13 13 12 10 9 8 8 7 7 7 7 9 10 11 11 11 11 12 12 13 13 13 13 12 13 14 13 13 12 11 11 12 12 11 10 10 12 11 11 12 10 11 10 8 7 2
16 14 15 16 17 18 22 25 26 27 29 29 28 30 30 29 30 30 29 29 29 28 29 29 27 26 26 27 26 25 23 23 22 21 21 20 18 18 15 13 14 13 11 10 9 9 8 8 8 9 10 11 12 12 12 12 12 13 13 13 14 12 13 14 13 13 13 12 12 11 11 11 11 10 10 11 11 10 10 10 10 8 5 5 7
16 16 17 18 18 20 22 24 25 27 29 29 28 30 31 30 30 30 30 31 29 29 29 28 27 27 27 28 27 25 24 24 23 22 22 20 19 18 16 15 15 13 11 12 11 10 10 9 9 10 11 11 12 12 12 12 12 13 14 14 14 13 13 13 12 13 13 12 11 10 10 11 10 10 10 10 10 9 9 10 11 10 6 4 5
17 17 18 19 18 20 23 24 26 28 29 30 30 31 32 31 30 31 31 31 30 30 29 28 28 28 27 28 27 25 24 24 24 24 23 20 19 19 16 16 16 13 12 14 12 11 11 10 10 11 11 11 11 11 12 12 13 14 14 14 14 13 13 13 12 12 12 11 10 9 9 10 10 10 11 10 9 9 9 9 10 11 9 6 3
18 19 20 19 18 21 25 25 27 29 30 30 30 31 31 30 31 32 32 32 32 31 29 28 29 28 27 27 27 27 25 24 25 25 24 22 20 19 18 17 17 13 12 13 13 12 12 11 12 12 12 12 12 12 13 13 14 14 14 14 13 13 13 12 11 11 10 10 9 9 9 10 11 10 10 9 9 8 8 8 8 8 9 7 5
19 19 19 19 18 21 26 27 28 30 29 29 30 30 30 30 31 32 32 32 32 31 29 29 29 28 27 26 27 28 26 24 25 26 25 23 21 20 19 18 15 13 13 13 14 14 13 13 13 12 12 12 12 13 13 13 14 14 14 14 12 12 12 11 10 10 9 9 9 9 9 10 10 9 9 8 8 8 8 8 7 6 6 6 6
18 18 19 20 20 23 28 30 30 30 30 29 29 29 29 30 31 31 31 31 32 31 29 30 29 27 26 26 27 28 27 25 26 26 26 24 21 20 20 19 16 14 15 14 14 15 14 14 13 13 13 13 13 13 13 13 13 13 13 13 12 11 11 11 10 9 8 8 8 8 8 8 8 7 7 6 6 7 7 7 7 6 6 6 8
18 18 19 19 19 22 27 29 30 30 29 29 29 28 29 29 30 32 32 31 33 31 29 31 29 27 28 27 27 29 28 27 27 27 26 23 21 20 20 20 17 15 15 16 16 16 15 14 14 14 13 13 13 13 12 13 13 12 12 12 12 11 11 11 10 9 8 8 8 8 8 8 8 7 6 6 5 6 6 6 7 7 7 7 9
19 18 17 17 17 19 24 27 27 27 27 29 29 29 30 30 31 32 31 31 33 31 29 31 29 27 28 28 29 30 29 28 27 26 26 24 22 21 20 19 17 15 16 17 17 17 16 15 15 14 14 13 13 13 13 12 12 12 12 12 11 11 11 11 10 9 9 9 9 9 8 7 7 6 6 6 6 6 6 6 7 7 8 8 9
20 18 16 16 15 18 23 25 26 26 28 29 29 29 30 30 30 30 30 30 32 31 29 30 29 28 28 28 29 30 29 28 27 25 25 24 23 22 20 19 18 17 17 17 18 18 17 16 15 15 14 14 13 13 12 12 12 13 12 12 11 11 11 10 10 10 9 9 9 8 7 6 5 5 4 5 5 5 6 6 6 7 8 9 9
18 18 17 15 16 18 20 22 24 25 27 28 29 29 29 29 29 29 30 30 30 31 30 30 30 29 29 30 30 30 28 27 26 26 26 25 24 23 21 19 18 19 19 18 18 18 17 17 16 15 15 14 14 13 12 12 12 12 12 12 11 11 10 10 10 10 9 8 8 8 6 5 4 4 4 4 4 5 5 5 6 7 8 10 11
16 16 17 16 17 17 16 18 23 24 26 28 29 29 28 29 29 28 30 30 30 31 31 31 31 31 31 32 30 30 29 27 27 28 28 27 25 23 21 20 20 20 19 19 19 18 18 17 16 16 15 14 14 13 13 13 13 12 12 12 12 11 10 10 10 9 9 8 8 7 6 5 4 3 3 3 4 5 5 5 6 7 8 10 12
17 15 16 16 16 16 16 18 22 24 26 27 27 27 27 27 28 27 29 30 30 32 32 31 32 32 32 31 30 30 30 27 28 30 29 28 26 24 22 21 21 20 20 20 20 19 18 18 17 16 15 14 14 13 13 13 13 12 12 12 12 11 10 10 10 9 8 8 8 7 6 5 4 3 3 3 3 3 4 5 6 7 8 10 11
17 16 15 15 15 17 17 18 21 24 26 25 24 26 26 26 27 27 27 30 31 32 32 31 32 34 33 31 29 30 30 29 30 31 29 28 26 24 22 21 21 21 21 21 20 19 19 18 17 17 16 15 15 14 13 13 12 12 12 12 12 11 10 10 10 9 8 8 7 6 5 5 4 4 3 1 0 1 1 3 5 6 7 9 11
17 17 17 17 16 17 17 16 19 24 25 24 24 26 26 27 28 27 27 30 31 31 31 31 33 33 31 30 30 29 30 31 32 31 29 28 26 24 22 21 22 21 21 21 21 20 20 19 18 18 17 16 16 15 14 13 13 13 12 12 11 11 11 10 10 9 8 8 7 6 6 5 4 4 3 1 2 2 2 3 4 5 6 8 10
15 16 18 18 16 16 16 15 17 22 25 25 26 26 25 26 28 28 27 29 31 30 31 32 32 31 30 30 30 28 30 32 32 31 30 28 26 24 22 22 22 22 22 21 21 21 21 20 20 20 19 19 18 18 17 16 16 16 15 13 12 12 11 11 10 9 8 8 7 7 6 4 3 3 4 3 5 5 5 5 6 6 7 8 9
12 12 14 15 15 15 15 14 17 21 25 26 26 26 25 26 28 30 28 30 32 31 31 31 31 30 31 31 29 29 30 32 33 32 30 28 26 24 23 22 22 22 22 22 21 21 21 22 22 23 22 22 21 20 20 19 17 16 16 14 13 12 11 11 10 10 9 8 8 8 6 2 1 3 3 2 4 4 5 6 7 8 8 9 9
13 13 13 14 13 14 15 15 17 22 26 26 25 25 25 26 30 31 29 30 32 31 31 31 30 30 32 30 28 29 32 34 33 32 31 29 26 25 24 23 23 22 22 23 24 23 22 24 26 25 23 23 21 20 20 19 18 17 16 15 14 13 12 12 11 10 10 9 9 9 6 2 2 2 1 2 4 5 7 7 8 8 9 11 12
11 12 14 14 13 13 15 16 17 22 26 26 25 26 26 27 30 31 30 31 32 30 30 31 29 30 31 30 27 30 34 35 33 31 31 29 26 25 25 24 24 24 24 25 25 23 22 26 28 25 22 22 21 19 20 20 19 19 18 15 14 13 12 12 11 10 10 10 9 8 6 3 2 2 2 4 5 6 7 9 9 9 10 12 13
13 14 13 13 13 12 14 16 18 22 24 24 25 25 24 26 29 30 30 31 30 29 30 30 29 30 30 28 27 30 33 33 32 32 31 28 26 25 25 25 24 24 25 25 25 22 21 25 26 22 20 20 20 19 20 20 20 20 19 16 14 13 13 12 11 11 11 12 12 9 6 5 5 5 3 4 5 5 6 8 8 9 12 12 12
13 13 12 12 12 11 15 20 22 23 24 23 24 24 24 27 30 30 30 30 29 29 30 29 29 29 28 27 28 29 31 32 32 32 31 28 26 25 24 24 25 25 26 25 23 21 22 23 22 20 19 19 18 19 21 21 21 20 19 16 12 12 13 12 11 11 10 11 11 10 8 7 8 7 6 7 7 7 7 6 6 9 11 12 13
10 12 14 13 12 11 16 21 24 25 25 24 23 25 26 28 30 31 29 28 28 28 27 28 29 28 28 28 29 29 30 31 33 33 31 28 27 27 25 24 25 25 25 24 22 22 23 22 19 18 19 18 18 19 20 22 23 21 21 17 10 9 13 12 10 10 10 9 9 8 7 7 7 8 9 9 9 8 6 3 6 9 10 11 12
11 11 11 12 14 17 20 22 24 26 25 24 24 26 28 28 29 31 29 28 29 28 28 29 29 29 29 30 30 30 30 32 33 32 31 29 28 27 25 25 25 24 24 24 22 22 22 21 19 18 19 18 18 20 20 21 24 24 23 19 10 7 10 12 10 9 9 9 9 9 8 7 6 8 10 10 9 8 4 4 7 9 9 10 10
12 12 10 11 17 23 26 26 26 25 24 25 26 28 29 28 28 30 28 27 27 27 29 31 30 30 31 31 31 31 30 31 32 31 30 29 28 27 25 26 26 24 23 23 22 21 21 20 20 19 18 17 19 21 20 20 23 26 26 21 12 6 8 10 9 9 9 10 10 10 10 8 8 10 10 9 9 7 4 4 7 8 9 9 9
13 15 14 18 22 26 28 29 28 25 23 25 28 30 29 26 26 28 27 26 25 24 28 31 30 31 32 31 31 31 31 31 31 30 30 29 28 27 27 27 27 25 23 22 22 21 20 20 20 20 17 17 19 21 19 18 22 26 27 22 12 7 7 9 10 10 10 11 11 12 12 9 8 10 9 9 8 6 3 4 6 8 9 9 10
16 17 19 23 26 27 28 29 28 25 25 28 31 32 29 25 25 26 25 24 25 25 28 30 29 31 31 30 30 30 31 32 31 31 32 31 29 28 28 26 26 25 23 22 22 21 20 20 20 19 16 16 20 21 19 18 21 25 27 22 13 9 9 10 11 11 11 11 13 14 15 13 11 9 8 8 7 5 3 4 6 7 8 10 12
12 18 22 26 28 28 26 25 25 26 27 30 32 31 28 25 26 26 24 25 26 26 27 28 28 29 29 28 29 30 31 32 31 31 32 31 29 29 28 26 24 23 22 21 21 20 20 19 19 18 16 15 18 20 20 20 20 23 26 23 15 11 11 11 12 12 12 12 13 14 15 16 16 14 11 9 8 5 4 5 6 6 8 10 11
10 18 25 24 24 26 25 23 25 26 27 29 30 27 25 25 25 24 24 27 29 28 29 29 28 28 28 27 28 31 32 31 31 31 32 29 27 29 29 26 23 21 21 20 19 19 19 18 18 18 15 14 16 17 19 22 22 22 26 25 19 13 10 9 11 13 12 13 14 14 13 13 15 15 12 10 8 6 5 6 6 7 8 9 10
15 23 25 22 20 22 23 24 27 28 27 27 27 25 23 24 23 22 24 27 29 29 28 29 29 27 27 27 29 31 32 30 30 31 31 28 26 27 28 25 23 22 21 20 19 18 18 18 18 17 16 15 15 16 20 25 25 23 25 26 23 17 11 6 7 11 12 14 15 15 15 13 13 12 9 8 8 7 7 6 6 7 8 9 10
17 22 23 21 20 20 21 23 26 28 27 27 27 25 24 23 23 24 26 26 27 28 27 27 26 25 26 28 30 32 33 32 32 33 32 30 28 28 27 25 23 22 21 21 20 19 17 16 17 17 17 16 16 17 20 25 25 23 24 25 25 21 14 8 6 5 8 12 15 16 17 15 14 12 9 8 9 9 9 7 6 7 7 9 11
18 21 23 22 20 20 22 23 26 26 25 27 27 24 23 23 23 26 28 28 29 31 29 27 25 25 28 31 32 33 34 33 34 33 32 31 30 29 27 24 22 23 24 23 23 22 19 17 18 18 17 17 16 17 20 24 24 24 23 23 25 24 18 13 8 3 4 7 11 13 14 14 13 11 9 9 10 11 10 8 7 7 9 11 13
17 22 25 23 20 22 23 23 24 24 23 23 23 22 21 22 23 26 27 28 30 31 29 26 24 26 30 33 34 34 35 35 35 34 33 32 31 29 26 24 23 26 27 25 23 22 20 19 19 18 18 17 17 17 20 22 23 24 23 22 25 25 21 17 13 7 2 3 7 10 11 12 11 9 9 10 12 12 11 10 10 11 12 14 15
17 19 23 22 20 22 23 22 23 24 22 20 21 21 20 20 23 27 28 28 30 30 27 26 25 26 29 33 34 34 35 35 34 33 32 32 31 29 26 24 25 26 27 25 23 22 20 19 19 18 18 18 18 18 20 21 22 24 24 23 24 25 23 20 18 13 8 4 6 9 9 9 9 9 11 12 12 12 11 12 13 14 15 16 17
18 20 21 21 20 19 19 20 21 23 23 21 20 20 20 20 23 27 28 27 28 28 26 26 26 27 29 33 34 34 34 34 33 30 29 29 28 27 26 25 25 24 23 22 22 22 21 19 18 18 18 19 20 20 20 21 24 25 25 24 24 25 25 24 22 19 13 8 6 7 8 9 10 12 13 13 13 13 12 14 15 15 17 18 17
22 24 21 20 20 19 18 18 18 20 21 21 20 21 21 21 24 26 25 24 26 28 26 26 27 28 29 32 34 33 33 33 31 29 29 29 28 27 26 27 26 24 23 22 22 22 21 19 19 20 20 19 20 21 20 22 26 28 27 25 25 26 27 27 25 22 17 11 8 8 10 11 12 13 14 14 14 14 16 18 18 17 19 18 15
19 20 17 17 17 18 19 17 16 17 18 18 18 21 22 21 23 26 25 24 26 28 26 25 26 25 26 29 32 33 33 33 30 28 28 28 28 27 26 25 24 23 23 23 23 23 23 22 21 21 22 21 20 21 22 23 25 28 28 27 26 27 28 29 27 23 17 11 9 9 10 10 12 13 14 15 15 17 19 19 17 16 15 12 11
17 18 18 18 16 20 24 21 17 16 16 16 18 21 22 22 24 26 25 25 26 25 23 23 23 21 24 29 31 30 31 31 29 26 25 24 24 22 22 23 23 22 22 24 24 23 23 22 21 20 22 22 21 21 21 21 22 24 26 25 24 25 26 25 24 23 18 13 11 11 12 12 13 14 16 17 18 19 18 15 13 12 11 10 11
13 15 16 14 14 19 25 25 22 18 16 14 16 18 21 24 24 24 25 29 28 23 20 21 20 20 24 27 27 25 26 26 25 24 23 24 22 20 20 21 22 22 23 24 24 22 21 21 20 19 20 20 19 19 20 21 19 20 22 22 20 20 22 21 19 19 20 16 12 11 12 13 14 15 16 17 17 18 16 13 12 12 12 12 12
Wind_Direction
154 158 162 169 169 160 160 169 170 169 178 175 172 181 182 176 177 177 177 177 175 173 173 176 178 178 177 179 180 180 178 168 159 157 150 149 162 171 150 136 129 127 134 137 139 150 145 124 142 161 216 230 230 244 272 294 197 178 357 179 140 128 126 131 143 139 122 108 101 106 104 92 85 81 84 85 83 85 88 88 82 73 60 41 41
158 157 160 167 162 159 162 171 172 171 177 175 175 186 184 179 179 177 176 176 176 178 177 177 181 181 179 179 179 176 173 166 160 157 149 145 147 153 145 129 122 125 126 127 133 144 151 152 167 181 203 214 203 227 250 255 232 184 160 154 138 142 130 137 151 145 133 138 136 127 115 100 95 92 92 95 89 87 87 77 64 64 65 48 44
162 160 158 162 158 160 164 171 176 174 176 176 180 187 185 182 181 177 175 174 177 180 178 180 181 180 179 178 178 173 170 168 158 150 142 138 137 136 136 129 126 128 125 124 129 136 151 152 158 177 196 215 217 227 217 225 248 182 158 152 151 160 135 133 151 148 149 159 156 148 140 128 114 117 115 102 98 106 110 108 94 73 66 63 59
161 159 158 161 159 164 168 171 176 177 176 178 185 188 186 184 180 176 174 173 176 177 177 182 182 178 177 177 177 167 160 160 150 142 140 136 136 137 141 146 141 129 122 127 127 123 142 150 151 170 181 200 234 229 179 193 205 138 148 149 146 161 147 131 145 148 140 149 155 212 175 161 153 155 142 123 131 127 111 126 127 98 59 50 57
160 161 164 165 166 169 168 168 174 179 178 181 189 191 186 183 179 176 174 173 175 177 178 180 180 178 174 169 164 155 149 151 148 146 149 141 138 145 150 150 141 129 128 131 122 101 143 173 159 184 185 167 183 163 150 162 161 146 148 152 133 133 139 125 114 144 133 130 89 359 156 164 47 149 146 146 174 145 94 100 113 106 73 25 33
163 165 167 167 172 171 165 167 174 179 181 184 190 190 186 182 179 176 173 173 175 177 178 179 180 180 173 161 153 151 151 159 162 158 158 152 146 144 143 142 138 134 130 129 128 99 42 103 119 139 154 137 141 148 144 136 130 128 126 127 90 96 121 120 107 121 124 113 53 37 75 5 77 151 155 150 175 158 129 128 104 112 137 132 8
164 163 166 167 172 173 168 169 175 179 182 186 189 190 189 184 179 175 174 175 174 175 177 179 181 181 175 165 159 159 160 168 172 165 161 155 148 145 149 151 145 135 127 128 146 123 106 107 110 122 134 135 138 134 133 131 124 119 112 114 110 100 106 120 118 115 105 85 69 75 89 53 84 143 149 118 158 174 177 168 148 128 109 128 220
163 163 169 170 171 175 174 173 175 179 183 185 186 188 189 185 180 176 176 176 173 174 177 179 180 178 175 170 165 165 165 170 171 164 161 154 149 154 159 154 140 131 130 136 138 126 118 111 114 121 123 130 132 124 122 124 126 126 115 112 121 110 94 105 109 102 99 91 88 88 87 86 80 83 68 62 149 162 181 180 175 177 148 149 174
164 167 172 172 173 175 176 176 176 178 185 188 188 189 187 182 181 178 177 177 174 176 179 181 180 177 174 171 170 171 170 170 165 159 158 155 155 161 162 154 144 138 139 152 161 144 124 113 119 121 118 128 129 125 127 123 119 122 120 117 120 111 98 99 96 87 87 79 73 74 77 85 79 62 38 20 35 160 171 174 178 190 214 213 191
167 171 171 173 174 174 174 175 175 178 186 189 190 193 189 182 183 180 178 178 176 179 181 181 181 177 174 174 175 172 166 163 160 157 157 158 162 166 163 157 149 145 150 170 174 144 127 119 124 125 121 124 123 120 127 125 118 113 113 115 119 115 105 101 95 90 87 74 63 62 60 55 53 49 31 19 7 341 17 160 177 185 199 206 213
165 171 170 171 172 173 172 173 176 179 184 186 188 193 190 185 185 182 182 180 178 181 183 181 181 178 177 179 177 168 161 161 158 157 161 164 166 165 161 155 147 152 165 179 160 120 119 123 127 130 122 119 120 117 116 115 113 110 108 108 110 108 103 99 93 90 87 79 70 66 62 54 50 46 31 21 13 4 356 328 180 194 198 189 204
158 164 167 169 170 172 171 171 176 179 182 186 185 184 186 188 186 182 183 182 180 182 184 183 181 180 181 182 175 166 163 165 163 162 165 167 163 158 157 151 148 156 166 174 160 121 127 132 128 130 127 124 124 119 114 112 110 109 106 105 104 103 103 101 94 88 83 79 75 69 67 65 58 49 39 31 21 13 1 342 356 353 263 182 189
157 159 163 167 169 172 172 171 176 180 183 186 183 178 182 188 187 183 183 183 182 183 185 184 182 183 184 180 173 167 165 167 167 167 168 166 162 159 156 151 154 164 167 169 168 157 153 145 138 139 134 129 127 123 118 116 114 112 110 108 107 105 105 104 96 90 87 84 81 76 72 71 65 56 48 44 32 26 24 359 347 348 319 243 186
159 158 160 162 170 173 173 173 176 183 183 182 180 177 182 189 188 185 184 185 185 186 186 185 183 185 185 179 173 168 167 168 168 170 171 167 164 164 159 155 162 170 171 171 170 169 164 157 150 143 137 132 130 125 118 116 116 113 112 110 106 104 105 104 98 94 92 88 85 81 75 71 67 63 60 55 45 36 32 10 348 342 315 307 294
155 155 159 162 172 173 172 173 176 183 182 179 179 176 182 190 189 185 184 185 187 187 187 186 185 185 183 178 173 170 170 170 168 169 169 166 167 167 160 161 170 173 176 177 172 170 167 163 155 141 139 138 132 127 122 121 121 117 115 112 105 105 106 104 99 95 92 87 85 83 80 77 69 65 66 61 54 45 33 18 12 359 319 326 353
146 155 163 166 170 170 172 174 175 181 181 181 181 178 182 188 188 187 186 184 185 187 187 187 183 181 179 176 173 171 170 168 166 167 166 166 169 167 164 169 172 171 177 175 169 171 169 164 157 145 141 139 132 130 126 124 124 119 115 110 103 101 101 100 99 95 91 88 86 84 82 79 73 71 70 62 56 52 37 27 34 28 3 352 350
146 159 165 167 168 169 175 175 174 180 183 184 186 184 183 184 185 188 186 183 184 186 186 185 180 176 175 175 173 171 169 167 166 166 165 166 169 167 168 171 167 164 171 169 167 172 169 163 158 148 142 139 134 132 128 125 123 117 113 111 108 106 102 99 97 95 93 91 88 90 90 80 74 72 67 59 51 49 40 33 39 35 21 12 354
155 163 163 165 168 169 175 177 177 182 184 184 187 188 186 184 185 187 185 183 184 185 184 181 176 174 173 174 174 171 168 167 168 167 164 165 168 169 166 163 160 162 167 167 167 169 166 163 158 149 144 140 136 133 128 125 122 118 116 114 111 109 107 103 101 101 99 99 96 94 90 80 73 67 59 52 45 43 42 35 34 34 30 25 1
159 162 161 166 171 171 175 177 178 181 183 184 186 188 188 186 186 187 185 183 182 182 182 178 175 174 173 175 175 172 168 166 167 167 165 165 168 169 165 160 159 167 170 165 167 168 166 162 157 151 148 142 138 134 129 128 126 122 119 115 112 111 110 107 106 106 103 103 100 91 84 75 66 61 55 48 40 38 38 34 30 23 24 22 352
158 157 162 169 173 173 175 177 178 179 181 184 185 186 188 186 185 187 186 182 181 180 179 176 175 174 174 174 173 172 170 166 166 166 165 165 168 169 170 169 166 169 173 169 169 171 167 164 159 154 150 144 140 136 131 131 126 121 120 118 117 116 113 111 110 110 111 110 103 94 89 79 70 64 54 47 38 31 28 27 23 10 6 5 345
155 156 162 167 170 170 173 178 179 177 178 183 184 185 187 187 187 187 185 180 179 179 177 176 175 173 172 171 169 170 169 165 165 166 164 164 167 166 167 171 167 165 171 172 174 174 169 165 162 157 152 146 143 139 135 132 126 124 126 123 123 122 119 120 120 119 120 116 107 97 91 85 79 74 59 50 41 28 26 19 13 5 355 352 345
152 157 159 161 165 166 169 176 180 178 177 182 186 186 187 188 189 188 184 179 178 178 176 175 175 171 169 169 167 167 168 165 164 165 164 165 167 165 162 164 165 166 170 173 174 173 170 167 162 157 154 149 145 142 138 135 132 132 130 128 130 130 128 129 130 129 126 119 113 103 95 88 80 72 59 51 40 30 28 19 8 2 347 341 342
153 156 157 157 160 163 167 174 180 182 181 182 186 188 188 187 186 187 186 180 177 177 173 171 173 169 167 168 166 166 167 167 167 166 164 165 167 166 163 162 166 167 169 173 173 170 168 166 162 158 153 150 149 146 142 141 140 138 135 135 137 137 137 139 138 136 131 122 115 107 100 96 88 81 66 52 43 34 28 17 2 354 344 338 339
154 152 154 156 157 162 167 174 180 183 183 184 187 189 188 186 185 186 186 181 175 174 170 167 168 167 167 167 165 165 164 165 168 167 163 163 164 166 164 163 165 165 167 171 171 168 167 165 162 158 154 153 151 147 146 147 145 143 143 141 141 142 143 145 144 140 136 130 123 117 113 108 101 98 79 54 48 37 25 17 359 347 343 339 336
150 146 148 153 160 166 169 175 180 182 183 187 189 188 185 185 186 185 184 180 173 170 168 166 165 163 164 165 164 164 164 164 168 168 164 164 163 162 162 164 165 165 167 170 169 168 168 165 161 159 155 154 152 150 150 151 151 152 150 147 146 148 148 148 148 143 139 138 131 126 124 119 115 107 85 55 41 33 20 9 353 343 342 338 333
145 140 147 157 164 171 173 176 179 180 183 186 186 185 182 182 186 186 181 176 170 168 167 166 166 164 163 164 164 166 167 167 169 168 165 165 164 161 162 165 167 167 168 169 169 168 167 164 162 160 156 154 153 154 155 155 157 157 154 154 152 151 153 150 147 146 145 143 138 135 130 123 118 102 81 57 38 40 28 6 350 342 341 338 334
146 145 154 164 170 175 178 177 175 177 181 182 181 182 181 179 183 183 177 172 168 166 166 166 165 164 163 164 165 166 170 170 169 165 163 164 163 162 164 167 170 170 169 168 169 169 167 165 163 159 157 156 153 154 156 157 160 159 157 159 157 154 155 152 151 152 149 145 144 140 134 131 131 122 110 100 49 91 65 6 345 338 342 341 339
152 155 162 171 175 177 177 176 173 174 176 177 177 181 180 179 181 179 174 170 167 165 166 164 163 161 163 166 167 167 170 170 167 164 163 163 162 163 166 170 171 170 168 169 170 169 167 165 163 159 157 155 152 155 160 161 163 164 163 163 162 160 158 157 158 155 152 152 148 145 150 157 166 174 169 130 73 69 53 12 347 345 352 350 345
153 157 165 174 178 176 174 174 173 172 173 174 178 181 176 174 178 176 172 170 167 164 163 162 161 161 162 164 165 166 166 166 165 164 163 163 162 165 169 170 171 170 169 171 171 169 167 165 161 160 159 159 160 165 170 172 172 170 168 168 170 170 167 164 163 159 158 158 153 161 176 182 189 185 158 97 62 47 26 14 5 2 0 352 343
161 160 169 175 177 174 171 172 173 172 172 175 180 181 173 169 173 174 172 170 167 164 162 162 163 164 163 162 162 163 164 163 164 165 164 163 163 167 170 170 170 169 170 173 172 168 168 166 162 162 163 164 169 173 174 175 176 172 169 171 175 176 174 172 170 169 170 169 172 185 194 193 191 183 159 82 33 8 354 354 354 350 341 329 322
174 168 173 177 176 172 171 176 178 174 174 177 179 177 172 170 172 173 172 170 168 165 162 162 164 163 161 161 160 162 165 164 164 165 166 165 165 169 170 169 168 170 173 174 170 168 170 170 168 167 169 171 174 178 177 174 176 176 172 173 177 179 177 178 179 178 179 181 186 196 210 248 263 232 248 321 335 331 327 331 333 330 321 308 302
180 175 177 178 177 177 177 177 175 174 177 178 176 173 171 172 173 172 170 168 167 165 162 161 162 160 158 159 160 163 166 166 165 167 167 166 169 170 169 170 169 171 173 171 168 170 174 174 171 170 174 177 177 179 179 176 179 180 175 174 177 179 180 183 184 184 189 191 189 193 208 238 249 256 296 310 313 318 320 319 318 320 316 302 292
188 182 173 169 174 183 179 170 166 172 179 179 174 170 169 169 168 167 166 166 164 161 159 158 159 158 158 158 159 162 166 167 168 168 166 168 172 171 169 170 170 170 170 169 170 173 172 170 171 172 177 180 182 183 184 184 184 182 177 173 175 182 186 185 186 193 197 193 188 188 194 209 227 242 258 265 273 293 304 304 305 314 319 312 301
188 179 161 165 181 179 165 161 164 170 176 176 172 168 165 165 164 163 163 164 162 159 157 156 158 158 158 160 161 162 165 167 170 169 168 171 173 171 169 170 171 172 173 173 174 173 168 166 171 177 180 182 188 190 190 192 191 184 178 175 175 183 188 186 191 198 195 182 180 189 202 208 218 230 231 234 258 286 291 289 307 320 322 323 317
187 175 163 173 187 170 154 158 164 169 172 172 170 166 163 162 163 162 161 160 160 158 157 157 159 160 162 164 166 165 165 167 170 170 171 172 170 168 169 170 171 174 176 176 177 177 174 172 176 182 182 185 192 194 192 195 197 189 183 183 176 171 182 191 195 193 186 178 181 193 207 205 203 215 227 240 270 297 298 311 341 333 324 323 321
180 169 162 172 174 162 155 157 162 168 171 170 166 160 157 159 162 163 161 159 159 161 162 162 162 164 166 167 168 166 166 168 170 170 171 171 168 166 167 168 167 168 171 174 177 179 179 180 182 183 184 189 196 195 194 198 200 193 188 188 178 159 180 193 193 187 184 187 195 203 206 205 211 226 239 252 274 294 307 339 342 332 323 325 328
160 144 145 162 164 159 155 154 160 168 169 166 164 157 154 157 161 162 162 163 165 167 166 165 165 166 168 169 168 167 166 167 170 172 172 171 169 169 170 170 167 165 167 169 172 175 178 182 184 184 188 195 196 194 198 202 200 195 192 189 183 174 187 190 187 191 194 194 201 205 200 204 223 232 241 255 271 288 317 342 333 326 326 330 329
140 135 149 163 162 157 153 154 160 167 164 158 159 155 151 154 159 162 166 170 172 170 165 166 170 170 169 169 169 168 168 169 172 176 175 173 173 174 174 172 169 169 172 173 174 175 178 183 186 187 193 197 192 190 195 200 198 196 193 189 187 192 197 195 195 199 200 201 205 203 196 198 213 223 234 250 264 281 315 338 330 326 329 330 320
144 153 158 157 152 149 151 156 161 165 158 153 153 153 152 155 161 166 170 174 178 176 170 170 172 170 169 170 170 171 173 172 173 174 173 172 173 174 173 171 171 174 177 178 177 176 179 185 188 189 193 195 190 188 192 197 197 195 192 188 188 199 202 202 204 201 200 207 214 211 207 207 211 218 231 245 253 264 301 330 332 331 326 318 310
161 158 143 142 146 148 152 156 160 160 155 152 153 155 157 161 165 170 174 176 179 179 175 172 169 166 169 171 171 173 174 172 171 171 171 171 172 172 170 168 171 174 174 176 178 177 179 183 185 189 191 190 187 187 190 194 194 194 193 188 186 202 209 207 206 202 200 208 215 218 221 222 223 230 240 244 245 252 277 303 320 324 314 305 303
172 137 126 134 145 149 152 152 155 159 156 155 157 158 161 165 168 174 177 176 177 178 175 172 168 167 170 171 171 174 174 171 171 171 169 170 170 171 170 167 167 169 169 173 175 172 173 174 177 185 189 188 190 190 190 192 192 193 195 191 189 202 215 210 205 204 205 209 214 221 228 227 222 226 236 241 241 250 266 286 310 314 306 302 303
148 127 128 135 138 145 152 151 154 158 158 158 160 161 165 170 174 179 181 177 175 173 168 167 167 166 168 170 172 174 172 169 169 169 167 166 166 167 167 165 164 166 167 166 163 160 163 165 170 182 188 191 197 199 195 194 194 194 196 195 195 201 211 208 198 204 213 217 217 222 229 227 217 215 228 240 244 254 265 282 309 310 303 304 302
135 130 135 139 140 149 154 152 156 162 162 162 163 164 168 173 176 181 182 176 170 166 162 162 163 163 165 169 172 173 171 169 168 167 165 163 163 163 163 162 162 163 160 157 156 156 156 161 173 186 189 189 197 202 200 199 198 196 198 200 201 203 210 211 197 208 231 229 222 222 223 220 214 215 231 249 252 255 263 281 303 304 302 304 300
142 139 137 139 147 156 159 158 161 165 165 165 167 169 171 175 175 178 178 171 165 165 163 160 159 160 162 166 169 171 170 168 167 165 163 161 162 162 161 161 162 160 156 155 158 160 162 170 183 188 186 185 190 197 202 204 201 198 200 203 204 206 211 211 204 224 274 238 213 208 207 205 208 220 241 255 257 259 265 275 286 290 297 298 296
147 144 143 148 155 156 159 161 163 166 169 170 172 171 168 170 169 166 166 162 159 159 158 154 153 155 158 161 163 165 167 167 166 165 164 162 161 160 161 163 162 160 159 160 162 169 177 184 187 186 184 186 190 196 202 204 201 201 203 204 205 208 210 210 209 212 230 203 181 180 187 196 209 232 253 260 262 263 265 270 275 280 286 285 287
147 147 151 155 154 154 158 159 161 167 172 175 178 174 167 165 161 157 156 157 155 155 157 159 158 156 157 158 158 159 163 166 166 166 165 163 163 163 164 164 161 161 166 169 172 181 189 188 184 184 185 185 186 192 200 201 199 202 207 207 208 210 210 213 216 213 205 196 182 179 187 202 220 242 258 263 263 261 261 266 269 274 277 275 277
145 151 158 153 150 156 158 156 161 169 172 175 178 175 168 163 160 159 160 159 157 157 159 160 157 154 157 160 160 159 162 163 164 164 164 165 166 168 168 169 167 167 172 178 180 184 187 186 184 186 186 183 182 188 197 201 199 201 206 208 209 210 211 213 219 219 216 217 213 210 219 227 238 251 258 260 259 256 258 263 267 272 274 271 271
147 154 159 148 149 159 155 153 163 168 170 173 171 166 164 162 161 164 164 158 156 157 154 152 151 152 157 162 163 162 162 162 163 165 166 168 171 173 175 177 176 176 177 179 180 183 187 187 186 186 185 182 183 188 196 202 201 201 204 207 209 211 212 212 216 219 220 221 228 241 248 248 249 253 255 257 258 259 263 269 272 272 270 269 270
139 140 130 120 135 148 145 147 158 160 166 173 167 164 169 167 165 170 170 161 156 156 154 152 150 150 156 162 165 165 165 165 167 169 171 174 176 178 179 181 182 183 183 181 181 185 189 189 187 186 185 184 185 191 200 207 207 205 205 208 210 211 211 211 213 216 217 218 225 235 244 249 249 249 252 258 260 262 265 268 268 266 264 267 274
128 118 105 107 128 139 138 141 149 156 166 169 161 164 174 173 171 175 175 165 158 156 156 158 156 155 159 162 163 165 167 168 169 170 172 176 179 180 183 184 186 188 189 188 187 189 191 191 189 190 191 191 193 197 203 209 210 207 207 209 211 211 209 209 212 213 211 215 227 231 233 238 240 243 248 254 257 260 265 267 267 267 271 280 282
122 111 107 120 143 144 140 142 147 153 160 166 167 167 165 167 172 176 170 163 162 161 160 163 166 166 165 163 161 162 166 167 168 171 172 173 175 180 184 187 189 190 191 192 192 193 193 192 192 192 195 198 200 202 203 205 207 206 202 199 204 208 205 203 207 208 205 208 220 227 230 236 242 248 252 255 260 265 268 270 271 271 272 273 273